Flag for United Kingdom Weather past 2 weeks in Preston, England, United Kingdom

Now
63 °F

Broken clouds.


Feels Like: 63 °F
Forecast: 55 / 61 °F
Wind: 25 mph from Southwest

Location: Blackpool Airport

Current Time: Aug 29, 2014 at 11:21:47 AM

Latest Report: Aug 29, 2014 at 10:50 AM


Visibility: N/A

Pressure: 29.71 "Hg

Humidity: 83%

Dew point: 57 °F

Location of PrestonLocation

Historic Weather in Preston — Graph

°F

Preston temperature yesterday

Maximum temperature yesterday: 68 °F (at 10:50 AM)
Minimum temperature yesterday: 57 °F (at 1:20 PM)
Average temperature yesterday: 63 °F

Past Weeks' High & Low Weather Summary

 TemperatureHumidityPressure
High68 °F (Aug 27, 2:20 PM)100% (Aug 15, 6:50 AM)30.12 "Hg (Aug 15, 6:50 AM)
Low48 °F (Aug 27, 6:20 AM)49% (Aug 26, 4:20 PM)29.59 "Hg (Aug 25, 5:20 PM)
Average59 °F72%29.88 "Hg
* Reported Aug 14 10:50 AM — Aug 29 10:20 AM, Preston, Weather by CustomWeather, © 2014

Note: Actual official high and low records may vary slightly from our data, if they occured in-between our weather recording intervals... More about our weather records

Advertising

Preston weather history for previous 24 hours

 ConditionsComfort  
Time TempWeatherWind HumidityBarometerVisibility
10:20 AM
Aug 29
61 °FBroken clouds.25 mph88%29.71 "HgN/A
9:50 AM61 °FLight rain. Partly sunny.22 mph88%29.71 "HgN/A
9:20 AM59 °FLight rain. Partly sunny.21 mph94%29.71 "HgN/A
8:50 AM59 °FLight rain. Partly sunny.22 mph94%29.71 "Hg6 mi
8:20 AM59 °FLight rain. Scattered clouds.20 mph94%29.71 "Hg4 mi
7:50 AM59 °FRain. Partly sunny.22 mph94%29.68 "Hg4 mi
7:20 AM59 °FLight rain. Broken clouds.21 mph94%29.68 "Hg4 mi
6:50 AM57 °FRain. Partly cloudy.21 mph100%29.68 "Hg4 mi
6:20 AM59 °FRain. Partly cloudy.22 mph88%29.68 "Hg3 mi
8:50 PM
Aug 28
61 °FPassing clouds.17 mph77%29.74 "HgN/A
8:20 PM61 °FPassing clouds.17 mph83%29.74 "HgN/A
7:50 PM63 °FPassing clouds.16 mph77%29.74 "HgN/A
7:20 PM64 °FPassing clouds.16 mph73%29.74 "HgN/A
6:50 PM64 °FPassing clouds.15 mph68%29.74 "HgN/A
6:20 PM64 °FPassing clouds.14 mph68%29.74 "HgN/A
5:50 PM66 °FPassing clouds.13 mph60%29.74 "HgN/A
5:20 PM66 °FPassing clouds.8 mph64%29.74 "HgN/A
4:50 PM66 °FPassing clouds.9 mph68%29.77 "HgN/A
4:20 PM66 °FPassing clouds.12 mph68%29.77 "HgN/A
3:50 PM66 °FPassing clouds.12 mph68%29.77 "HgN/A
3:20 PM66 °FPassing clouds.12 mph64%29.77 "HgN/A
2:50 PM64 °FPassing clouds.13 mph73%29.77 "HgN/A
2:20 PM64 °FScattered clouds.16 mph73%29.77 "HgN/A
1:50 PM61 °FSprinkles. Scattered clouds.17 mph83%29.74 "HgN/A
1:20 PM57 °FSprinkles. Scattered clouds.14 mph88%29.77 "HgN/A
12:50 PM59 °FSprinkles. Scattered clouds.16 mph82%29.74 "HgN/A
12:20 PM61 °FSleet. Scattered clouds.18 mph83%29.74 "HgN/A
11:50 AM64 °FSprinkles. Scattered clouds.10 mph73%29.71 "HgN/A
11:20 AM64 °FScattered clouds.14 mph73%29.74 "HgN/A
Weather by CustomWeather, © 2014

See weather overviewHow to use our weather pages